QPF
0.00 0.00 0.00 0.00 0.00 0.00 0.00 0.00 0.00 0.00 0.00 0.00 0.00 0.00 0.00 0.00 0.00 0.00 0.00 0.00 0.00 0.00 0.00 0.00 0.00 0.00 0.00 0.00 0.01 0.01 0.03 0.05 0.08 0.08 0.09 0.10 0.10 0.10 0.09 0.09 0.09 0.10 0.09
0.00 0.00 0.00 0.00 0.00 0.00 0.00 0.00 0.00 0.00 0.00 0.00 0.00 0.00 0.00 0.00 0.00 0.00 0.00 0.00 0.00 0.00 0.00 0.00 0.00 0.00 0.00 0.00 0.00 0.00 0.01 0.03 0.05 0.08 0.09 0.12 0.13 0.12 0.11 0.11 0.09 0.09 0.08
0.00 0.00 0.00 0.00 0.00 0.00 0.00 0.00 0.00 0.00 0.00 0.00 0.00 0.00 0.00 0.00 0.00 0.00 0.00 0.00 0.00 0.00 0.00 0.00 0.00 0.00 0.00 0.00 0.00 0.00 0.00 0.02 0.03 0.05 0.08 0.12 0.17 0.18 0.16 0.12 0.08 0.08 0.07
0.00 0.00 0.00 0.00 0.00 0.00 0.00 0.00 0.00 0.00 0.00 0.00 0.00 0.00 0.00 0.00 0.00 0.00 0.00 0.00 0.00 0.00 0.00 0.00 0.00 0.00 0.00 0.00 0.00 0.00 0.00 0.01 0.02 0.04 0.06 0.11 0.18 0.23 0.21 0.17 0.10 0.06 0.05
0.00 0.00 0.00 0.00 0.00 0.00 0.00 0.00 0.00 0.00 0.00 0.00 0.00 0.00 0.00 0.00 0.00 0.00 0.00 0.00 0.00 0.00 0.00 0.00 0.00 0.00 0.00 0.00 0.00 0.00 0.00 0.00 0.01 0.03 0.04 0.10 0.18 0.26 0.26 0.22 0.15 0.09 0.05
0.00 0.00 0.00 0.00 0.00 0.00 0.00 0.00 0.00 0.00 0.00 0.00 0.00 0.00 0.00 0.00 0.00 0.00 0.00 0.00 0.00 0.00 0.00 0.00 0.00 0.00 0.00 0.00 0.00 0.00 0.00 0.00 0.00 0.01 0.03 0.07 0.16 0.25 0.31 0.33 0.24 0.13 0.05
0.00 0.00 0.00 0.00 0.00 0.00 0.00 0.00 0.00 0.00 0.00 0.00 0.00 0.00 0.00 0.00 0.00 0.00 0.00 0.00 0.00 0.00 0.00 0.00 0.00 0.00 0.00 0.00 0.00 0.01 0.01 0.00 0.00 0.00 0.02 0.04 0.11 0.24 0.33 0.35 0.30 0.21 0.10
0.00 0.00 0.00 0.00 0.00 0.00 0.00 0.00 0.00 0.00 0.00 0.00 0.00 0.00 0.00 0.00 0.00 0.00 0.00 0.00 0.00 0.00 0.00 0.00 0.00 0.00 0.00 0.00 0.00 0.00 0.00 0.00 0.00 0.00 0.01 0.03 0.08 0.18 0.33 0.39 0.39 0.31 0.20
0.00 0.00 0.00 0.00 0.00 0.00 0.00 0.00 0.00 0.00 0.00 0.00 0.00 0.00 0.00 0.00 0.00 0.00 0.00 0.00 0.00 0.00 0.00 0.00 0.00 0.00 0.00 0.00 0.00 0.00 0.00 0.00 0.01 0.01 0.01 0.02 0.08 0.18 0.29 0.44 0.48 0.41 0.27
0.00 0.00 0.00 0.00 0.00 0.00 0.00 0.00 0.00 0.00 0.00 0.00 0.00 0.00 0.00 0.00 0.00 0.00 0.00 0.00 0.00 0.00 0.00 0.00 0.00 0.00 0.00 0.00 0.01 0.01 0.00 0.00 0.01 0.01 0.01 0.02 0.05 0.16 0.25 0.31 0.41 0.41 0.29
0.00 0.00 0.00 0.00 0.00 0.00 0.00 0.00 0.00 0.00 0.00 0.00 0.00 0.00 0.00 0.00 0.00 0.00 0.00 0.00 0.00 0.00 0.01 0.01 0.01 0.01 0.00 0.00 0.01 0.01 0.01 0.01 0.02 0.02 0.02 0.02 0.04 0.09 0.20 0.23 0.31 0.37 0.30
0.00 0.00 0.00 0.00 0.00 0.00 0.00 0.00 0.00 0.00 0.00 0.00 0.00 0.00 0.00 0.00 0.00 0.00 0.00 0.00 0.00 0.00 0.01 0.01 0.01 0.01 0.01 0.01 0.01 0.02 0.02 0.02 0.02 0.02 0.02 0.02 0.03 0.06 0.11 0.19 0.23 0.32 0.31
0.00 0.00 0.00 0.00 0.00 0.00 0.00 0.00 0.00 0.00 0.00 0.00 0.00 0.00 0.00 0.00 0.00 0.00 0.00 0.00 0.00 0.00 0.01 0.01 0.02 0.02 0.02 0.02 0.02 0.03 0.04 0.04 0.03 0.02 0.02 0.02 0.02 0.05 0.10 0.17 0.26 0.32 0.38
0.00 0.00 0.00 0.00 0.00 0.00 0.00 0.00 0.00 0.00 0.00 0.00 0.00 0.00 0.00 0.00 0.00 0.00 0.00 0.00 0.00 0.00 0.01 0.02 0.03 0.04 0.04 0.04 0.05 0.05 0.05 0.05 0.05 0.04 0.03 0.03 0.04 0.06 0.10 0.18 0.28 0.34 0.39
0.00 0.00 0.00 0.00 0.00 0.00 0.00 0.00 0.00 0.00 0.00 0.00 0.00 0.00 0.00 0.00 0.00 0.00 0.00 0.00 0.00 0.01 0.01 0.02 0.02 0.04 0.06 0.06 0.06 0.07 0.07 0.07 0.08 0.06 0.05 0.04 0.03 0.05 0.10 0.17 0.24 0.31 0.31
0.00 0.00 0.00 0.00 0.00 0.00 0.00 0.00 0.00 0.00 0.00 0.00 0.00 0.00 0.00 0.00 0.00 0.00 0.01 0.01 0.01 0.01 0.01 0.01 0.03 0.04 0.07 0.07 0.07 0.07 0.07 0.07 0.07 0.06 0.05 0.04 0.04 0.04 0.09 0.17 0.22 0.25 0.25
0.00 0.00 0.00 0.00 0.00 0.00 0.00 0.00 0.00 0.00 0.00 0.00 0.00 0.00 0.00 0.00 0.01 0.01 0.01 0.01 0.01 0.02 0.01 0.01 0.02 0.04 0.05 0.05 0.06 0.06 0.06 0.05 0.05 0.05 0.05 0.04 0.04 0.05 0.09 0.16 0.21 0.24 0.24
0.00 0.00 0.00 0.00 0.00 0.00 0.00 0.00 0.00 0.00 0.00 0.00 0.00 0.00 0.00 0.01 0.01 0.01 0.01 0.01 0.01 0.01 0.01 0.01 0.01 0.02 0.02 0.03 0.04 0.05 0.04 0.04 0.03 0.03 0.03 0.04 0.05 0.05 0.08 0.13 0.19 0.22 0.22
0.00 0.00 0.00 0.00 0.00 0.00 0.00 0.00 0.00 0.00 0.00 0.00 0.00 0.00 0.00 0.00 0.01 0.02 0.02 0.02 0.02 0.01 0.01 0.00 0.01 0.01 0.02 0.03 0.03 0.03 0.03 0.03 0.03 0.02 0.02 0.03 0.05 0.06 0.07 0.11 0.16 0.21 0.22
0.00 0.00 0.00 0.00 0.00 0.00 0.00 0.00 0.00 0.00 0.00 0.00 0.00 0.00 0.00 0.00 0.01 0.02 0.03 0.03 0.02 0.01 0.01 0.00 0.01 0.01 0.02 0.03 0.03 0.03 0.03 0.03 0.03 0.03 0.02 0.02 0.04 0.06 0.08 0.09 0.13 0.18 0.18
0.00 0.00 0.00 0.00 0.00 0.00 0.00 0.00 0.00 0.00 0.00 0.00 0.00 0.01 0.01 0.01 0.02 0.03 0.03 0.03 0.03 0.02 0.01 0.01 0.01 0.02 0.02 0.02 0.03 0.03 0.03 0.03 0.03 0.04 0.02 0.02 0.03 0.05 0.07 0.09 0.10 0.14 0.16
0.00 0.00 0.00 0.00 0.00 0.00 0.00 0.00 0.00 0.00 0.00 0.00 0.00 0.01 0.01 0.02 0.03 0.03 0.04 0.05 0.04 0.03 0.03 0.02 0.02 0.02 0.02 0.02 0.03 0.04 0.04 0.04 0.04 0.04 0.03 0.03 0.03 0.05 0.07 0.09 0.10 0.10 0.13
0.00 0.00 0.00 0.00 0.00 0.00 0.00 0.00 0.00 0.00 0.00 0.00 0.00 0.01 0.01 0.02 0.03 0.03 0.04 0.05 0.04 0.04 0.03 0.03 0.03 0.02 0.02 0.02 0.02 0.03 0.03 0.04 0.03 0.03 0.03 0.02 0.03 0.04 0.06 0.07 0.08 0.08 0.08
0.00 0.00 0.00 0.00 0.00 0.00 0.00 0.00 0.00 0.00 0.00 0.01 0.01 0.01 0.01 0.02 0.02 0.03 0.04 0.03 0.03 0.03 0.03 0.03 0.03 0.03 0.02 0.02 0.02 0.02 0.02 0.03 0.03 0.02 0.02 0.02 0.02 0.03 0.04 0.05 0.06 0.07 0.07
0.00 0.00 0.00 0.00 0.00 0.00 0.00 0.00 0.00 0.00 0.00 0.01 0.01 0.01 0.01 0.02 0.03 0.04 0.04 0.04 0.03 0.02 0.03 0.03 0.03 0.03 0.03 0.03 0.03 0.02 0.02 0.02 0.02 0.01 0.02 0.02 0.03 0.03 0.03 0.03 0.05 0.06 0.06
0.00 0.00 0.00 0.00 0.00 0.00 0.00 0.00 0.00 0.00 0.00 0.00 0.01 0.01 0.02 0.02 0.02 0.03 0.04 0.04 0.04 0.03 0.04 0.04 0.05 0.05 0.04 0.04 0.03 0.03 0.02 0.01 0.01 0.01 0.01 0.01 0.02 0.03 0.03 0.03 0.05 0.06 0.06
MSLP
1014.38 1014.34 1014.35 1014.37 1014.37 1014.34 1014.27 1014.17 1014.05 1013.93 1013.81 1013.69 1013.56 1013.42 1013.27 1013.09 1012.90 1012.71 1012.54 1012.40 1012.32 1012.29 1012.31 1012.36 1012.41 1012.44 1012.43 1012.35 1012.20 1011.99 1011.74 1011.45 1011.14 1010.84 1010.53 1010.24 1009.95 1009.69 1009.45 1009.25 1009.13 1009.10 1009.19
1014.20 1014.10 1014.04 1014.00 1013.95 1013.88 1013.79 1013.69 1013.57 1013.45 1013.33 1013.22 1013.09 1012.96 1012.81 1012.63 1012.44 1012.25 1012.07 1011.92 1011.80 1011.74 1011.72 1011.73 1011.75 1011.77 1011.77 1011.73 1011.65 1011.53 1011.38 1011.21 1011.02 1010.82 1010.60 1010.37 1010.13 1009.89 1009.66 1009.46 1009.32 1009.27 1009.33
1014.05 1013.90 1013.78 1013.68 1013.58 1013.47 1013.34 1013.21 1013.07 1012.94 1012.81 1012.69 1012.56 1012.43 1012.28 1012.11 1011.93 1011.74 1011.55 1011.39 1011.26 1011.16 1011.11 1011.09 1011.09 1011.10 1011.10 1011.10 1011.08 1011.04 1010.99 1010.92 1010.84 1010.73 1010.60 1010.45 1010.27 1010.08 1009.89 1009.73 1009.61 1009.57 1009.63
1013.89 1013.71 1013.55 1013.41 1013.26 1013.10 1012.93 1012.76 1012.58 1012.42 1012.27 1012.13 1011.99 1011.85 1011.70 1011.54 1011.37 1011.18 1011.00 1010.83 1010.69 1010.58 1010.50 1010.46 1010.44 1010.45 1010.47 1010.50 1010.52 1010.55 1010.57 1010.58 1010.57 1010.55 1010.50 1010.42 1010.31 1010.19 1010.06 1009.95 1009.89 1009.90 1009.99
1013.68 1013.50 1013.33 1013.15 1012.97 1012.77 1012.55 1012.34 1012.13 1011.93 1011.74 1011.57 1011.42 1011.26 1011.11 1010.94 1010.77 1010.59 1010.41 1010.24 1010.10 1009.98 1009.90 1009.85 1009.83 1009.84 1009.87 1009.92 1009.98 1010.04 1010.11 1010.17 1010.22 1010.25 1010.25 1010.24 1010.19 1010.14 1010.09 1010.07 1010.08 1010.16 1010.31
1013.40 1013.25 1013.09 1012.90 1012.70 1012.47 1012.22 1011.96 1011.71 1011.47 1011.25 1011.04 1010.85 1010.67 1010.50 1010.32 1010.14 1009.95 1009.77 1009.61 1009.47 1009.36 1009.28 1009.23 1009.23 1009.24 1009.29 1009.36 1009.44 1009.53 1009.62 1009.70 1009.78 1009.84 1009.88 1009.90 1009.91 1009.93 1009.96 1010.01 1010.12 1010.29 1010.51
1013.08 1012.96 1012.82 1012.64 1012.43 1012.18 1011.91 1011.62 1011.33 1011.05 1010.79 1010.54 1010.31 1010.10 1009.89 1009.69 1009.48 1009.29 1009.11 1008.94 1008.80 1008.70 1008.63 1008.60 1008.61 1008.64 1008.71 1008.79 1008.88 1008.98 1009.08 1009.18 1009.26 1009.33 1009.39 1009.44 1009.49 1009.56 1009.66 1009.80 1009.99 1010.24 1010.55
1012.72 1012.64 1012.53 1012.37 1012.16 1011.90 1011.61 1011.30 1010.98 1010.66 1010.36 1010.07 1009.80 1009.54 1009.29 1009.05 1008.82 1008.61 1008.41 1008.24 1008.10 1008.01 1007.95 1007.94 1007.96 1008.01 1008.09 1008.19 1008.30 1008.41 1008.51 1008.60 1008.68 1008.76 1008.82 1008.89 1008.98 1009.09 1009.24 1009.44 1009.70 1010.03 1010.42
1012.36 1012.32 1012.23 1012.08 1011.87 1011.61 1011.30 1010.97 1010.62 1010.27 1009.93 1009.60 1009.29 1008.99 1008.70 1008.42 1008.16 1007.92 1007.71 1007.53 1007.39 1007.29 1007.24 1007.24 1007.27 1007.34 1007.44 1007.55 1007.67 1007.79 1007.90 1007.99 1008.08 1008.16 1008.24 1008.32 1008.43 1008.57 1008.75 1009.00 1009.31 1009.68 1010.13
1012.04 1012.01 1011.93 1011.78 1011.56 1011.28 1010.96 1010.60 1010.23 1009.85 1009.48 1009.12 1008.77 1008.44 1008.12 1007.82 1007.53 1007.27 1007.04 1006.84 1006.69 1006.59 1006.54 1006.53 1006.57 1006.65 1006.75 1006.87 1007.00 1007.13 1007.25 1007.37 1007.47 1007.57 1007.66 1007.77 1007.89 1008.05 1008.25 1008.52 1008.85 1009.25 1009.72
1011.76 1011.73 1011.63 1011.45 1011.21 1010.90 1010.55 1010.17 1009.78 1009.38 1008.99 1008.61 1008.24 1007.89 1007.56 1007.24 1006.95 1006.67 1006.43 1006.22 1006.06 1005.94 1005.87 1005.85 1005.88 1005.94 1006.04 1006.16 1006.30 1006.44 1006.59 1006.73 1006.86 1006.99 1007.11 1007.24 1007.39 1007.56 1007.78 1008.05 1008.38 1008.78 1009.25
1011.53 1011.46 1011.32 1011.10 1010.82 1010.48 1010.09 1009.68 1009.26 1008.85 1008.45 1008.06 1007.70 1007.35 1007.03 1006.72 1006.43 1006.16 1005.92 1005.70 1005.52 1005.38 1005.28 1005.23 1005.23 1005.26 1005.34 1005.45 1005.59 1005.74 1005.91 1006.08 1006.25 1006.42 1006.59 1006.75 1006.92 1007.12 1007.33 1007.60 1007.91 1008.29 1008.74
1011.32 1011.20 1011.00 1010.73 1010.40 1010.00 1009.58 1009.14 1008.70 1008.28 1007.88 1007.50 1007.16 1006.84 1006.54 1006.26 1006.00 1005.75 1005.51 1005.29 1005.10 1004.93 1004.80 1004.70 1004.65 1004.64 1004.68 1004.76 1004.88 1005.04 1005.23 1005.43 1005.64 1005.86 1006.07 1006.27 1006.47 1006.68 1006.90 1007.15 1007.45 1007.79 1008.20
1011.10 1010.93 1010.67 1010.34 1009.95 1009.51 1009.05 1008.58 1008.13 1007.70 1007.30 1006.95 1006.64 1006.35 1006.10 1005.87 1005.64 1005.42 1005.21 1004.99 1004.79 1004.59 1004.41 1004.26 1004.15 1004.08 1004.07 1004.11 1004.21 1004.36 1004.55 1004.78 1005.03 1005.28 1005.54 1005.78 1006.01 1006.24 1006.46 1006.70 1006.97 1007.28 1007.66
1010.84 1010.62 1010.32 1009.95 1009.51 1009.03 1008.54 1008.05 1007.58 1007.15 1006.77 1006.44 1006.16 1005.92 1005.71 1005.52 1005.35 1005.16 1004.97 1004.77 1004.55 1004.33 1004.11 1003.90 1003.73 1003.60 1003.53 1003.53 1003.59 1003.72 1003.91 1004.15 1004.41 1004.70 1004.98 1005.26 1005.52 1005.76 1005.99 1006.22 1006.47 1006.76 1007.10
1010.52 1010.28 1009.96 1009.56 1009.10 1008.60 1008.09 1007.58 1007.11 1006.68 1006.30 1005.99 1005.74 1005.53 1005.36 1005.21 1005.07 1004.93 1004.76 1004.56 1004.34 1004.10 1003.85 1003.60 1003.37 1003.19 1003.06 1003.01 1003.04 1003.14 1003.31 1003.55 1003.82 1004.12 1004.42 1004.71 1004.98 1005.23 1005.46 1005.69 1005.92 1006.20 1006.53
1010.13 1009.90 1009.58 1009.19 1008.73 1008.23 1007.72 1007.22 1006.74 1006.31 1005.93 1005.62 1005.37 1005.18 1005.03 1004.90 1004.78 1004.66 1004.51 1004.32 1004.10 1003.85 1003.58 1003.30 1003.04 1002.82 1002.66 1002.57 1002.56 1002.64 1002.79 1003.01 1003.27 1003.56 1003.86 1004.14 1004.41 1004.66 1004.88 1005.11 1005.34 1005.61 1005.93
1009.67 1009.48 1009.20 1008.84 1008.42 1007.94 1007.45 1006.95 1006.47 1006.03 1005.64 1005.31 1005.05 1004.84 1004.68 1004.56 1004.44 1004.32 1004.17 1004.00 1003.78 1003.53 1003.26 1002.98 1002.72 1002.48 1002.30 1002.20 1002.17 1002.22 1002.35 1002.55 1002.79 1003.05 1003.32 1003.59 1003.84 1004.07 1004.28 1004.49 1004.73 1005.00 1005.33
1009.14 1009.02 1008.81 1008.51 1008.14 1007.72 1007.25 1006.76 1006.28 1005.82 1005.41 1005.05 1004.75 1004.51 1004.32 1004.16 1004.02 1003.89 1003.74 1003.57 1003.36 1003.13 1002.88 1002.62 1002.37 1002.15 1001.98 1001.87 1001.84 1001.89 1002.00 1002.17 1002.38 1002.61 1002.84 1003.07 1003.28 1003.48 1003.68 1003.88 1004.11 1004.38 1004.73
1008.58 1008.53 1008.41 1008.19 1007.89 1007.52 1007.08 1006.61 1006.13 1005.65 1005.20 1004.80 1004.45 1004.15 1003.91 1003.71 1003.54 1003.38 1003.22 1003.05 1002.86 1002.65 1002.43 1002.20 1001.99 1001.81 1001.67 1001.59 1001.57 1001.62 1001.72 1001.86 1002.04 1002.23 1002.42 1002.60 1002.77 1002.94 1003.10 1003.29 1003.51 1003.79 1004.15
1007.99 1008.04 1007.99 1007.86 1007.63 1007.31 1006.92 1006.47 1005.98 1005.48 1005.00 1004.54 1004.14 1003.78 1003.48 1003.23 1003.02 1002.83 1002.66 1002.49 1002.31 1002.13 1001.94 1001.76 1001.60 1001.46 1001.37 1001.32 1001.33 1001.38 1001.48 1001.60 1001.75 1001.90 1002.05 1002.18 1002.31 1002.44 1002.58 1002.75 1002.96 1003.25 1003.62
1007.41 1007.53 1007.57 1007.51 1007.35 1007.08 1006.72 1006.28 1005.80 1005.28 1004.77 1004.28 1003.82 1003.42 1003.07 1002.77 1002.52 1002.31 1002.12 1001.95 1001.78 1001.62 1001.47 1001.33 1001.21 1001.12 1001.07 1001.06 1001.08 1001.15 1001.25 1001.36 1001.48 1001.60 1001.71 1001.81 1001.90 1002.00 1002.12 1002.27 1002.48 1002.77 1003.15
1006.87 1007.05 1007.14 1007.14 1007.03 1006.80 1006.47 1006.05 1005.57 1005.05 1004.52 1004.01 1003.52 1003.09 1002.71 1002.39 1002.11 1001.88 1001.68 1001.50 1001.34 1001.20 1001.07 1000.95 1000.86 1000.80 1000.77 1000.78 1000.83 1000.90 1000.99 1001.10 1001.20 1001.30 1001.39 1001.46 1001.53 1001.61 1001.72 1001.87 1002.08 1002.37 1002.76
1006.38 1006.60 1006.74 1006.77 1006.69 1006.49 1006.18 1005.78 1005.31 1004.81 1004.28 1003.77 1003.29 1002.85 1002.46 1002.13 1001.85 1001.61 1001.40 1001.22 1001.05 1000.91 1000.78 1000.67 1000.58 1000.52 1000.50 1000.50 1000.55 1000.61 1000.70 1000.80 1000.89 1000.98 1001.06 1001.12 1001.19 1001.27 1001.38 1001.53 1001.75 1002.04 1002.43
1005.98 1006.22 1006.37 1006.42 1006.36 1006.17 1005.89 1005.51 1005.06 1004.58 1004.08 1003.59 1003.14 1002.72 1002.36 1002.04 1001.77 1001.53 1001.32 1001.13 1000.95 1000.79 1000.63 1000.50 1000.39 1000.30 1000.25 1000.24 1000.26 1000.31 1000.38 1000.46 1000.55 1000.63 1000.71 1000.78 1000.86 1000.95 1001.07 1001.24 1001.47 1001.77 1002.16
1005.69 1005.93 1006.09 1006.14 1006.08 1005.90 1005.63 1005.27 1004.86 1004.41 1003.96 1003.52 1003.11 1002.74 1002.42 1002.13 1001.88 1001.65 1001.44 1001.23 1001.03 1000.83 1000.64 1000.46 1000.30 1000.16 1000.06 1000.00 999.98 1000.00 1000.04 1000.11 1000.18 1000.27 1000.36 1000.44 1000.54 1000.65 1000.79 1000.97 1001.21 1001.52 1001.90
Thickness
5657 5653 5648 5644 5640 5635 5630 5627 5623 5619 5615 5611 5607 5603 5600 5597 5595 5592 5590 5590 5590 5591 5592 5594 5598 5601 5604 5609 5613 5617 5622 5627 5633 5641 5649 5656 5664 5671 5679 5686 5692 5698 5703
5654 5650 5645 5640 5635 5630 5626 5622 5618 5613 5609 5604 5600 5596 5593 5591 5588 5585 5583 5583 5582 5582 5584 5586 5589 5592 5596 5600 5604 5609 5614 5620 5625 5632 5639 5646 5654 5662 5669 5675 5682 5688 5693
5651 5646 5641 5636 5631 5626 5621 5617 5612 5607 5603 5598 5593 5589 5586 5583 5580 5578 5577 5576 5575 5575 5576 5578 5581 5583 5586 5590 5595 5600 5605 5612 5617 5623 5629 5636 5645 5652 5658 5664 5670 5676 5682
5647 5642 5636 5631 5626 5621 5616 5611 5606 5601 5596 5592 5587 5583 5579 5576 5573 5571 5570 5569 5568 5568 5569 5570 5572 5575 5578 5582 5586 5591 5596 5601 5608 5614 5620 5626 5634 5642 5648 5654 5659 5665 5670
5643 5637 5632 5627 5621 5616 5611 5606 5601 5595 5591 5586 5581 5576 5572 5569 5567 5566 5563 5562 5561 5561 5561 5562 5564 5566 5569 5573 5577 5581 5586 5591 5598 5604 5611 5617 5624 5632 5640 5646 5650 5654 5659
5639 5634 5628 5622 5617 5611 5606 5600 5595 5590 5585 5579 5574 5570 5566 5564 5562 5559 5556 5555 5554 5553 5553 5553 5554 5557 5561 5564 5569 5573 5577 5582 5589 5595 5602 5608 5616 5624 5632 5637 5642 5646 5650
5635 5629 5624 5618 5612 5606 5601 5595 5589 5584 5578 5573 5568 5564 5560 5557 5554 5551 5548 5546 5545 5545 5544 5544 5545 5549 5551 5554 5558 5563 5569 5574 5580 5587 5594 5601 5608 5616 5623 5630 5635 5640 5645
5630 5625 5619 5613 5607 5601 5594 5589 5583 5578 5572 5567 5563 5558 5554 5551 5548 5544 5541 5538 5537 5536 5536 5536 5536 5537 5539 5541 5546 5551 5557 5564 5570 5577 5585 5593 5599 5606 5614 5622 5628 5631 5635
5626 5620 5614 5608 5601 5595 5589 5584 5578 5572 5567 5562 5557 5553 5548 5545 5541 5537 5533 5530 5529 5528 5527 5527 5527 5528 5529 5530 5534 5539 5545 5552 5557 5565 5573 5581 5589 5596 5604 5611 5617 5623 5627
5623 5616 5610 5603 5596 5589 5584 5578 5572 5566 5561 5556 5552 5548 5543 5539 5535 5530 5526 5523 5521 5520 5518 5517 5517 5518 5518 5519 5522 5527 5533 5540 5545 5552 5560 5568 5576 5585 5594 5603 5611 5617 5622
5619 5612 5605 5598 5591 5585 5579 5573 5567 5561 5556 5552 5547 5543 5538 5534 5529 5525 5520 5516 5513 5511 5509 5508 5508 5507 5507 5508 5510 5515 5521 5526 5532 5539 5548 5556 5565 5575 5585 5594 5602 5610 5617
5614 5607 5600 5593 5586 5582 5575 5569 5563 5557 5552 5548 5543 5538 5534 5529 5524 5520 5515 5510 5506 5503 5502 5501 5500 5499 5498 5498 5500 5503 5507 5512 5520 5527 5536 5546 5556 5566 5576 5585 5593 5602 5610
5608 5601 5595 5587 5581 5575 5569 5564 5559 5553 5548 5544 5539 5534 5531 5526 5520 5515 5510 5506 5502 5498 5496 5494 5493 5492 5491 5492 5493 5495 5497 5503 5511 5519 5528 5538 5547 5557 5566 5576 5584 5593 5599
5603 5596 5589 5582 5576 5571 5565 5560 5555 5551 5546 5541 5536 5532 5528 5523 5518 5513 5507 5502 5498 5495 5492 5491 5490 5489 5487 5487 5488 5489 5492 5498 5505 5513 5521 5529 5537 5546 5557 5567 5576 5585 5590
5597 5590 5583 5577 5571 5567 5562 5557 5553 5549 5543 5538 5534 5529 5525 5522 5518 5510 5504 5500 5495 5492 5489 5489 5488 5488 5487 5486 5486 5487 5490 5493 5499 5506 5513 5521 5530 5539 5549 5559 5569 5578 5586
5592 5585 5578 5572 5567 5562 5558 5555 5552 5547 5543 5538 5532 5527 5524 5519 5514 5508 5502 5497 5493 5489 5487 5489 5488 5487 5486 5486 5486 5487 5489 5492 5497 5502 5509 5517 5526 5534 5543 5552 5562 5572 5581
5587 5580 5573 5567 5563 5558 5554 5550 5549 5548 5544 5539 5534 5529 5524 5519 5514 5508 5502 5498 5494 5490 5489 5490 5489 5488 5488 5487 5487 5488 5490 5492 5496 5501 5507 5514 5521 5529 5538 5547 5557 5566 5574
5582 5576 5569 5564 5559 5554 5550 5547 5544 5541 5540 5538 5535 5530 5526 5521 5515 5510 5503 5498 5497 5494 5493 5492 5492 5491 5490 5490 5490 5490 5492 5494 5497 5501 5507 5512 5518 5526 5534 5543 5553 5563 5571
5578 5571 5565 5560 5555 5551 5548 5545 5541 5538 5536 5534 5533 5531 5527 5522 5516 5510 5504 5500 5499 5498 5497 5495 5494 5494 5494 5494 5493 5493 5494 5497 5499 5502 5507 5511 5516 5523 5531 5540 5549 5557 5567
5573 5568 5563 5557 5552 5549 5546 5543 5540 5537 5535 5532 5531 5530 5526 5521 5518 5513 5507 5503 5501 5500 5499 5499 5498 5497 5497 5497 5497 5497 5498 5500 5502 5504 5508 5512 5516 5522 5530 5538 5547 5556 5564
5568 5562 5559 5554 5549 5546 5543 5541 5538 5535 5533 5531 5530 5528 5523 5520 5518 5514 5511 5507 5505 5503 5503 5502 5502 5502 5501 5501 5501 5502 5503 5504 5506 5507 5510 5514 5518 5522 5529 5536 5544 5553 5560
5563 5557 5553 5549 5546 5543 5541 5539 5536 5534 5532 5530 5530 5529 5525 5521 5518 5515 5512 5510 5508 5507 5506 5506 5506 5506 5506 5506 5506 5506 5507 5508 5510 5511 5514 5517 5520 5524 5529 5535 5542 5550 5557
5558 5553 5549 5546 5543 5540 5538 5536 5534 5532 5530 5529 5528 5527 5526 5523 5520 5517 5514 5512 5511 5510 5509 5508 5508 5508 5508 5508 5509 5510 5512 5514 5515 5516 5518 5520 5522 5526 5530 5536 5542 5548 5554
5552 5548 5545 5542 5540 5537 5535 5533 5532 5530 5529 5528 5527 5526 5525 5523 5520 5518 5516 5514 5512 5511 5510 5509 5509 5509 5509 5510 5510 5512 5514 5516 5517 5519 5520 5523 5525 5527 5531 5536 5542 5548 5553
5547 5543 5540 5537 5535 5533 5531 5530 5529 5528 5527 5526 5525 5524 5523 5522 5520 5517 5515 5514 5513 5512 5511 5510 5509 5510 5510 5511 5512 5513 5515 5516 5517 5520 5522 5524 5526 5529 5533 5537 5541 5546 5551
5540 5537 5534 5531 5530 5528 5527 5526 5526 5524 5523 5523 5522 5522 5521 5520 5519 5517 5515 5514 5513 5512 5511 5510 5510 5510 5510 5510 5511 5512 5513 5514 5516 5519 5522 5525 5528 5531 5534 5537 5541 5545 5550